Wetbulb
72.03 73.68 74.39 75.01 75.32 75.91 76.15 76.53 76.40 77.60 77.70 76.75 76.18 75.98 75.67 79.06 77.19 77.99 78.79 78.18 78.03 77.63 77.84 75.89 76.04 76.17 75.48 75.07 75.59 72.46 69.82 68.45 70.96 68.71 69.15 70.15 70.96 72.32 73.22 73.76 72.27 71.51 73.63
71.42 72.64 73.94 74.43 74.94 75.50 76.30 76.80 76.88 77.65 77.92 77.38 77.20 76.77 76.74 76.65 77.07 77.63 78.49 78.42 78.35 78.25 76.84 77.24 76.37 76.59 74.74 75.73 74.32 71.83 67.74 69.65 71.44 67.36 66.90 65.33 67.45 69.69 71.97 72.47 70.75 69.65 72.07
70.22 71.67 72.82 73.96 74.75 75.29 76.06 76.75 77.62 77.89 78.46 78.65 77.84 77.80 77.80 77.47 76.58 76.66 76.89 77.57 78.31 78.24 78.00 76.92 76.72 76.57 75.07 72.24 72.50 71.70 70.08 67.01 70.06 70.12 67.35 64.35 63.39 65.80 69.40 70.18 68.99 69.31 68.25
71.58 71.74 72.16 73.19 74.24 75.05 76.45 77.26 77.93 78.56 78.55 79.53 78.95 78.23 75.30 74.02 74.42 75.29 75.50 75.69 77.61 77.45 77.38 77.51 76.85 76.67 73.80 72.41 71.79 72.08 70.59 70.13 66.91 70.04 71.00 70.02 68.72 64.41 64.17 67.15 67.79 68.32 67.57
69.75 70.26 71.35 72.36 74.04 74.99 75.53 76.83 78.16 79.32 79.68 80.16 79.61 77.40 76.67 75.83 75.96 75.88 76.22 76.81 77.39 77.56 76.40 77.54 76.57 75.37 71.72 72.77 73.04 72.20 71.31 69.99 68.51 69.26 69.39 69.75 69.02 69.27 64.26 62.49 65.22 67.43 67.49
69.00 69.74 71.14 71.90 72.90 74.28 75.03 76.01 77.82 79.61 79.61 78.97 78.54 78.56 78.48 76.79 75.25 76.02 75.08 73.71 73.64 75.44 77.10 76.68 75.98 74.20 72.19 72.93 72.08 71.97 70.82 70.72 70.55 69.43 69.56 67.32 65.98 66.07 64.87 63.58 64.64 64.79 66.72
68.52 69.18 69.92 70.18 71.58 72.78 74.10 75.14 78.48 79.23 79.07 78.32 78.27 78.20 77.95 77.90 77.36 77.09 75.52 74.04 72.06 72.13 74.14 75.16 74.25 73.19 73.89 73.21 72.25 71.62 71.01 70.41 69.49 70.07 68.06 68.88 67.66 68.25 66.16 64.58 63.33 63.08 64.90
69.83 69.49 70.67 71.27 71.99 72.82 74.58 75.52 77.86 78.54 78.41 77.74 79.05 79.49 78.79 77.29 77.01 77.40 75.98 73.60 71.72 72.02 74.31 73.37 73.66 73.75 73.52 72.98 72.05 70.33 70.10 70.72 69.72 69.90 69.80 68.05 67.53 67.72 66.84 65.25 63.69 61.55 62.09
69.80 70.14 70.83 71.95 72.52 73.83 75.65 76.86 77.93 78.99 79.11 77.69 79.24 78.54 78.46 77.95 77.51 78.01 77.81 74.85 74.76 72.50 73.19 73.55 72.79 73.21 73.15 72.39 71.89 70.22 70.60 70.41 70.21 69.73 70.07 68.94 67.62 67.69 67.48 66.84 65.84 63.31 60.13
69.35 70.28 71.08 71.94 73.26 74.14 75.05 75.97 77.65 78.38 78.18 77.48 77.66 77.22 77.60 78.08 78.21 77.62 76.82 75.67 74.12 73.10 72.24 72.66 72.57 72.41 72.17 71.64 72.17 70.56 70.65 70.26 68.78 68.88 69.43 69.69 68.20 67.89 67.86 67.35 66.79 66.14 64.13
68.51 70.23 71.21 72.29 73.72 74.36 74.74 75.40 76.11 76.47 76.65 78.15 78.42 78.65 77.21 77.36 76.99 76.75 76.39 75.11 73.51 72.65 72.06 72.30 71.81 71.60 70.99 71.48 71.50 71.04 69.72 69.47 69.71 69.71 69.20 69.08 70.31 68.16 67.40 67.58 67.26 66.43 65.63
67.26 69.75 71.24 72.24 72.69 73.73 74.50 74.93 75.64 75.87 76.51 77.99 78.93 77.51 77.94 77.41 76.44 75.52 74.11 73.62 72.13 71.87 71.10 70.55 70.50 70.39 71.07 71.62 70.87 69.85 69.12 68.96 68.69 68.66 69.01 68.71 68.23 69.08 69.48 67.17 67.96 66.80 67.37
68.86 69.67 70.84 72.00 72.66 73.59 75.52 74.81 75.50 75.60 76.36 76.80 76.80 77.22 76.93 76.31 74.91 74.34 73.45 71.40 70.92 71.02 68.49 69.90 69.58 69.87 70.56 70.89 71.15 70.25 69.19 68.85 68.90 69.06 68.80 68.70 68.60 68.32 67.89 67.76 66.39 66.20 66.80
69.35 70.21 70.70 71.83 73.13 74.24 76.54 76.69 75.44 75.94 76.20 76.41 76.44 77.57 76.64 75.96 75.33 74.86 72.16 70.58 70.99 70.45 69.56 68.18 69.92 70.65 70.84 70.48 70.01 70.14 69.78 69.47 69.27 69.65 69.65 69.38 68.74 68.22 68.18 67.69 67.50 67.18 65.90
69.20 70.36 70.85 71.99 73.64 74.44 76.23 75.75 75.83 76.25 76.66 76.24 76.10 76.67 77.67 75.49 74.68 75.73 73.43 72.48 71.56 70.33 69.66 68.69 69.09 69.97 69.65 69.04 70.12 70.17 69.15 69.25 69.58 69.58 69.61 69.85 69.14 67.39 66.62 66.43 67.32 67.73 65.08
69.26 70.40 71.14 72.27 73.31 74.16 74.92 75.53 75.65 75.83 76.52 76.17 76.14 76.96 75.97 74.01 75.22 74.50 73.37 71.74 71.60 70.85 70.26 69.52 69.50 69.71 68.70 64.14 64.44 68.38 69.02 69.17 69.54 69.12 69.57 69.93 67.87 66.21 63.89 63.39 63.46 63.89 63.99
69.04 70.38 71.29 72.29 73.61 74.41 75.52 75.13 75.67 76.20 76.18 76.62 76.69 76.35 75.76 74.21 73.69 73.71 72.32 72.23 69.93 69.24 70.58 69.81 69.50 69.31 69.77 61.86 62.43 64.40 68.71 68.90 69.61 69.65 70.04 68.57 67.04 66.76 67.63 64.51 62.62 62.09 61.42
67.30 70.48 71.48 72.19 73.73 74.44 74.98 75.33 75.72 76.15 76.22 76.35 76.22 76.00 75.20 73.73 73.50 73.23 72.08 71.14 69.12 69.77 69.43 69.79 70.06 70.07 69.42 61.64 60.84 63.37 68.10 69.10 69.08 66.16 65.46 65.11 65.00 67.76 66.57 65.24 65.31 65.03 65.40
69.09 70.54 71.98 72.74 73.78 73.65 74.49 74.74 74.73 75.45 75.77 75.38 75.53 75.22 74.26 73.51 72.58 72.27 71.91 70.95 69.80 69.01 69.38 69.54 69.68 69.97 70.15 59.83 59.26 62.41 67.85 67.30 64.73 64.55 64.71 64.76 64.15 62.84 59.91 63.87 63.50 64.01 64.17
69.64 70.89 71.48 72.08 72.88 73.53 74.19 74.18 74.35 74.88 74.54 74.95 75.11 75.03 74.55 73.72 72.75 71.57 71.99 71.31 70.31 68.48 68.69 69.10 70.75 66.41 70.34 57.41 57.01 62.43 67.34 65.75 64.21 63.60 63.67 60.12 59.36 59.32 56.35 61.95 62.74 61.76 62.64
70.40 71.48 71.90 71.67 72.78 73.90 74.55 73.93 74.32 73.98 75.28 75.51 75.28 74.78 74.52 73.20 72.48 71.93 71.54 70.55 69.84 69.07 69.21 69.44 69.48 69.89 69.28 68.39 55.52 56.69 65.77 64.54 65.10 63.16 61.86 63.13 57.70 53.52 52.61 53.32 61.95 60.75 59.40
70.56 71.84 72.05 72.12 72.65 74.17 74.68 74.18 73.98 75.32 75.85 75.43 74.56 73.86 73.23 71.86 70.77 70.38 69.28 69.33 68.34 67.50 68.22 69.24 69.39 69.73 70.76 61.37 54.66 54.03 55.35 61.44 63.58 63.71 66.14 64.32 53.33 51.10 51.35 53.55 53.26 52.24 52.00
70.33 71.47 71.54 71.93 73.29 74.35 74.50 73.54 74.23 75.30 74.81 74.39 73.46 71.91 70.76 70.80 70.61 69.19 68.85 67.21 68.07 67.41 67.61 68.60 67.87 67.94 67.22 64.78 54.14 52.20 53.27 55.08 63.39 63.93 53.86 51.68 50.52 49.34 51.20 52.04 51.34 50.47 57.14
69.54 70.59 71.10 71.40 71.94 73.08 73.76 73.17 73.51 74.03 72.98 72.26 71.09 70.21 69.44 68.29 69.12 68.82 68.69 67.93 67.27 66.49 66.64 67.67 66.20 64.83 64.40 62.67 63.03 61.66 56.12 55.87 58.80 54.92 60.45 56.86 54.60 53.56 52.86 55.32 54.21 57.74 58.51
70.35 71.32 71.62 71.69 72.06 72.73 72.32 72.87 72.39 72.92 70.95 70.78 70.36 68.51 67.96 67.00 64.22 60.34 58.95 65.03 60.93 59.83 67.29 65.37 65.23 63.76 63.71 64.00 56.60 57.05 64.05 63.94 58.75 60.75 62.14 60.34 59.82 59.33 59.13 59.31 59.04 58.17 57.09
69.93 69.57 70.29 70.61 70.18 71.15 70.68 70.36 72.30 71.73 70.84 69.92 69.23 68.38 68.49 68.24 68.11 65.58 60.71 44.65 45.49 44.45 46.02 47.44 59.59 54.70 49.64 45.42 44.97 45.67 43.57 44.23 45.49 56.67 59.04 59.27 59.43 58.68 58.57 57.82 56.85 56.11 53.80
MSLP
1008.27 1009.18 1009.98 1010.63 1011.34 1012.03 1012.80 1013.58 1014.11 1014.56 1015.08 1015.32 1015.26 1015.39 1015.55 1016.02 1016.07 1015.67 1016.15 1016.31 1016.53 1016.70 1016.71 1016.53 1016.90 1017.36 1017.29 1017.35 1017.94 1017.93 1017.69 1017.44 1017.42 1017.30 1016.56 1016.73 1017.25 1017.08 1016.72 1016.50 1016.74 1017.06 1017.03
1007.37 1008.34 1009.14 1009.85 1010.54 1011.36 1012.14 1012.94 1013.61 1014.24 1014.73 1014.77 1014.97 1014.90 1014.95 1014.86 1014.87 1015.15 1015.48 1015.90 1016.03 1016.26 1016.55 1016.63 1016.65 1017.00 1016.90 1017.75 1017.96 1018.13 1017.77 1017.45 1017.68 1017.36 1016.79 1016.04 1016.32 1016.59 1016.86 1017.08 1016.91 1017.17 1016.95
1006.22 1007.12 1008.07 1008.84 1009.67 1010.46 1011.38 1012.12 1012.90 1013.55 1014.11 1014.31 1014.57 1014.94 1015.20 1015.34 1015.12 1015.08 1015.30 1015.45 1015.90 1016.03 1016.43 1016.63 1016.55 1017.19 1017.35 1017.03 1017.92 1018.05 1018.34 1017.51 1017.68 1018.19 1017.50 1016.36 1015.79 1016.26 1016.67 1017.39 1017.38 1017.52 1017.20
1005.24 1005.98 1006.93 1007.84 1008.62 1009.48 1010.43 1011.26 1012.08 1012.79 1013.29 1013.72 1013.78 1014.17 1014.26 1014.13 1014.09 1014.58 1014.79 1015.21 1015.66 1015.84 1016.16 1016.55 1016.81 1017.13 1016.86 1017.47 1017.61 1017.87 1018.24 1018.43 1017.70 1017.85 1017.97 1017.99 1017.91 1016.69 1015.97 1016.71 1017.30 1017.53 1017.36
1003.84 1004.67 1005.42 1006.45 1007.49 1008.49 1009.24 1010.09 1011.16 1011.90 1012.43 1012.94 1013.40 1013.64 1014.04 1013.66 1014.09 1014.29 1014.91 1015.35 1015.36 1015.60 1015.76 1016.30 1016.72 1017.23 1017.18 1017.55 1017.75 1017.96 1018.16 1017.99 1017.92 1017.61 1017.57 1017.88 1017.70 1018.15 1017.31 1016.24 1016.53 1017.05 1017.27
1002.44 1003.51 1004.47 1005.43 1006.43 1007.38 1008.26 1009.02 1010.00 1010.82 1011.56 1012.13 1012.73 1013.11 1013.12 1013.55 1013.52 1014.06 1014.45 1014.61 1014.92 1015.37 1015.68 1015.90 1016.41 1016.88 1016.98 1017.59 1017.87 1018.16 1018.25 1018.18 1018.22 1018.04 1018.02 1017.58 1017.44 1017.28 1017.43 1016.95 1016.74 1016.78 1016.84
1001.45 1002.29 1003.21 1004.21 1005.34 1006.19 1007.15 1008.04 1009.05 1009.88 1010.60 1011.24 1011.81 1012.40 1012.88 1013.31 1013.58 1013.94 1014.18 1014.12 1014.53 1015.03 1015.82 1016.39 1016.61 1016.69 1017.05 1017.38 1017.87 1018.52 1018.49 1018.55 1018.47 1018.48 1017.92 1017.79 1017.59 1017.64 1017.77 1017.51 1016.91 1016.71 1016.67
1000.05 1001.01 1001.99 1003.08 1004.14 1005.18 1006.15 1007.22 1008.03 1008.97 1009.60 1010.27 1010.92 1011.65 1012.29 1012.74 1013.24 1013.72 1013.57 1014.05 1014.27 1015.02 1015.53 1016.24 1016.46 1016.68 1016.77 1017.04 1017.52 1017.99 1018.32 1018.26 1018.33 1018.47 1018.47 1018.05 1017.71 1017.57 1017.54 1017.57 1017.38 1016.79 1016.24
998.31 999.45 1000.71 1001.83 1002.89 1003.97 1004.99 1005.94 1007.00 1007.91 1008.57 1009.27 1010.22 1010.89 1011.66 1012.34 1012.38 1013.02 1013.69 1013.80 1014.07 1014.55 1015.50 1015.67 1016.22 1016.69 1016.87 1017.06 1017.45 1017.59 1017.91 1018.19 1018.20 1018.03 1018.26 1018.29 1017.82 1017.56 1017.53 1017.65 1017.50 1017.27 1016.64
997.05 998.11 999.13 1000.23 1001.52 1002.55 1003.80 1005.12 1006.06 1006.79 1007.65 1008.40 1009.14 1009.98 1010.80 1011.58 1012.13 1012.65 1013.31 1013.52 1013.96 1014.26 1014.90 1015.54 1015.84 1016.37 1016.85 1016.97 1017.48 1017.24 1017.49 1017.90 1017.94 1017.78 1017.97 1018.20 1017.69 1017.59 1017.53 1017.50 1017.33 1017.14 1016.93
995.65 996.72 997.80 998.98 1000.31 1001.58 1002.56 1003.83 1004.94 1005.84 1006.72 1007.22 1007.94 1008.87 1009.69 1010.58 1011.54 1011.87 1012.47 1012.73 1013.95 1014.44 1014.71 1014.82 1015.65 1016.28 1016.63 1016.64 1017.03 1017.15 1017.16 1017.47 1017.65 1017.70 1017.84 1017.89 1018.05 1017.67 1017.16 1017.00 1017.44 1016.91 1016.73
994.65 995.59 996.70 998.12 999.10 1000.40 1001.30 1002.41 1003.46 1004.41 1005.17 1005.88 1006.90 1007.77 1008.71 1009.62 1010.52 1010.96 1011.81 1012.53 1012.91 1013.88 1014.39 1015.42 1014.72 1015.12 1015.70 1016.28 1016.53 1016.78 1016.76 1017.24 1017.32 1017.37 1017.47 1017.53 1017.39 1017.47 1017.68 1017.38 1017.02 1016.81 1016.89
995.09 995.35 996.06 997.07 998.21 999.38 1000.37 1001.09 1002.14 1002.94 1003.89 1005.19 1006.04 1006.86 1007.80 1008.98 1009.84 1010.42 1011.14 1012.03 1012.42 1013.26 1014.19 1013.88 1014.41 1015.23 1015.25 1015.59 1015.98 1016.15 1016.53 1016.72 1016.85 1016.59 1016.88 1016.94 1016.87 1016.95 1016.77 1016.88 1016.59 1016.14 1016.33
994.83 995.25 995.91 996.57 997.71 998.70 999.56 1000.31 1001.04 1002.00 1003.00 1003.91 1004.99 1006.08 1007.20 1008.02 1008.60 1009.24 1010.23 1010.93 1011.55 1012.26 1012.84 1012.77 1012.83 1014.02 1014.50 1014.99 1015.33 1015.58 1015.80 1015.99 1016.16 1016.19 1016.11 1016.23 1016.34 1016.32 1016.37 1016.43 1016.33 1016.41 1016.38
994.60 994.93 995.54 996.24 997.28 998.17 998.99 999.95 1000.73 1001.50 1002.16 1003.19 1004.22 1005.33 1006.61 1007.80 1008.49 1008.63 1009.28 1009.94 1010.58 1011.26 1012.01 1012.75 1013.03 1013.76 1014.22 1014.01 1014.82 1015.02 1015.33 1015.69 1015.57 1015.61 1015.67 1015.70 1015.75 1015.85 1016.15 1016.15 1015.84 1015.97 1016.06
993.85 994.46 995.32 995.99 996.70 997.43 998.44 999.47 1000.25 1001.04 1001.95 1002.60 1003.50 1004.90 1006.16 1007.26 1007.47 1008.30 1008.69 1009.48 1009.86 1010.38 1011.34 1011.88 1012.47 1013.16 1013.16 1013.55 1014.16 1014.47 1014.60 1014.89 1015.04 1014.93 1015.30 1015.33 1015.66 1015.85 1015.93 1016.01 1016.13 1016.20 1016.11
992.47 993.42 994.31 994.88 995.93 996.86 997.95 998.83 999.83 1000.70 1001.53 1002.21 1003.27 1004.44 1005.46 1006.40 1007.12 1007.69 1008.50 1008.83 1009.46 1010.34 1010.99 1011.53 1012.36 1012.40 1012.77 1013.16 1013.53 1013.87 1014.18 1014.16 1014.58 1014.87 1015.36 1015.60 1015.66 1015.38 1015.29 1015.28 1015.62 1015.67 1015.75
991.62 992.38 993.38 994.60 995.79 996.44 997.37 998.50 999.45 1000.31 1001.17 1001.95 1002.85 1003.87 1004.95 1005.66 1006.31 1006.97 1007.60 1008.30 1009.07 1009.51 1010.27 1010.92 1011.45 1011.91 1012.01 1012.51 1013.04 1013.63 1013.94 1014.00 1014.36 1014.55 1014.88 1015.57 1015.74 1015.49 1015.15 1015.18 1014.92 1014.73 1014.50
991.38 991.82 992.68 993.90 995.24 995.83 996.85 997.93 998.85 999.93 1001.00 1001.96 1002.73 1003.53 1004.65 1005.47 1006.02 1006.62 1007.23 1008.07 1008.52 1009.11 1009.66 1010.30 1010.70 1011.08 1011.58 1011.85 1012.34 1012.97 1013.34 1013.51 1013.96 1014.17 1014.20 1014.53 1015.27 1015.43 1015.53 1015.20 1014.58 1014.18 1013.82
991.63 992.32 992.98 993.79 994.91 995.41 996.48 997.54 998.52 999.60 1000.53 1001.52 1002.53 1003.46 1004.34 1005.22 1005.76 1006.78 1007.19 1007.22 1008.06 1008.85 1008.95 1009.34 1009.70 1010.42 1010.81 1011.50 1011.96 1012.35 1012.72 1012.98 1013.39 1013.60 1013.71 1013.88 1014.44 1015.09 1015.28 1015.15 1014.34 1013.87 1013.38
992.04 992.51 993.25 994.27 995.05 995.71 996.79 997.65 998.63 999.65 1000.52 1001.47 1002.35 1003.13 1003.81 1004.44 1005.06 1005.60 1006.85 1007.28 1007.94 1008.55 1008.77 1008.95 1009.31 1009.69 1010.20 1010.63 1011.48 1012.10 1012.43 1012.39 1012.61 1013.11 1013.41 1013.47 1013.51 1014.28 1014.89 1014.97 1014.19 1013.96 1013.93
992.89 993.28 993.90 995.23 995.96 996.58 997.34 998.13 998.94 999.81 1000.52 1001.23 1001.94 1003.01 1004.01 1004.86 1005.62 1005.79 1007.10 1007.59 1007.99 1008.68 1008.92 1008.74 1009.19 1009.47 1009.88 1010.61 1011.02 1011.34 1011.90 1012.18 1012.41 1011.98 1011.51 1012.71 1013.66 1014.17 1014.63 1014.73 1014.39 1014.22 1014.18
993.72 994.31 995.09 995.96 996.72 997.18 997.90 998.62 999.35 1000.11 1000.68 1001.27 1002.30 1003.40 1004.14 1004.71 1005.92 1006.39 1007.27 1008.05 1008.28 1008.43 1008.71 1008.82 1009.03 1009.23 1009.70 1010.70 1011.49 1011.71 1012.03 1012.44 1012.05 1011.80 1012.43 1012.68 1013.39 1014.08 1014.29 1014.15 1013.98 1013.93 1013.28
994.17 994.88 995.63 996.47 997.41 998.18 998.62 999.24 1000.05 1000.68 1001.44 1002.15 1003.22 1004.08 1004.79 1004.36 1006.38 1007.05 1007.58 1007.94 1008.15 1008.47 1008.87 1008.88 1008.89 1009.34 1010.12 1010.65 1010.85 1011.22 1011.91 1012.01 1011.87 1011.93 1011.98 1012.58 1013.17 1013.24 1013.36 1013.22 1013.41 1012.90 1012.22
995.39 995.79 996.51 997.15 998.02 998.75 999.50 999.85 1000.26 1000.92 1001.97 1002.82 1003.38 1004.04 1004.59 1005.36 1006.66 1007.51 1008.32 1008.11 1008.54 1008.95 1008.90 1008.58 1008.82 1009.37 1009.50 1009.88 1010.43 1010.90 1010.32 1010.50 1010.95 1011.14 1011.31 1011.52 1011.59 1011.73 1011.80 1011.67 1011.82 1012.00 1011.92
996.52 997.11 997.73 998.57 999.14 999.68 1000.57 1000.90 1001.09 1001.75 1002.09 1002.59 1003.52 1003.83 1004.46 1005.13 1005.72 1006.80 1008.03 1009.19 1009.36 1009.60 1009.44 1009.23 1008.85 1010.15 1010.11 1010.51 1011.07 1011.32 1011.49 1011.63 1011.88 1011.86 1010.95 1010.52 1010.48 1010.61 1010.78 1011.06 1011.31 1011.53 1011.83
Wind_Speed
19 19 19 18 17 15 15 15 14 14 10 10 9 8 8 6 7 8 8 9 8 10 7 7 5 5 7 2 1 4 3 6 4 6 2 2 4 1 1 2 3 3 2
19 19 19 19 19 17 16 16 16 15 13 10 8 7 6 7 6 7 5 7 7 8 7 6 4 3 2 2 2 3 5 2 3 5 4 2 6 4 1 1 2 4 2
21 21 21 20 19 19 18 17 17 16 15 14 9 7 6 6 6 7 6 7 8 7 6 5 4 4 5 2 2 2 3 4 2 4 4 3 2 3 5 4 3 2 3
21 21 22 22 21 19 18 19 18 17 16 16 12 12 9 9 6 5 4 4 5 5 5 5 5 4 3 2 1 1 4 4 3 1 1 3 6 4 2 5 3 3 2
22 23 23 22 22 21 19 18 18 17 16 15 14 12 13 9 7 6 3 7 5 7 7 6 5 4 5 3 2 2 2 2 5 2 1 1 2 0 5 4 2 1 3
23 22 21 21 21 20 20 19 19 17 17 17 17 16 14 12 9 7 7 7 6 7 7 8 7 6 4 4 3 3 3 3 3 4 2 3 3 2 4 5 4 3 2
23 22 23 22 21 22 21 19 18 18 18 19 18 18 17 14 13 10 9 6 6 6 7 7 7 7 6 4 3 4 4 4 5 3 5 3 4 2 5 6 6 5 4
23 24 25 23 23 23 22 20 18 19 20 19 18 15 16 11 11 11 8 7 6 6 8 8 7 7 7 6 5 6 6 5 6 6 6 6 5 4 4 6 7 7 7
24 26 26 25 24 23 22 21 20 19 20 20 15 16 14 15 11 10 10 8 7 6 7 9 8 8 8 7 7 7 6 6 6 5 6 7 7 6 5 6 6 7 9
21 23 25 26 24 24 22 22 21 21 20 20 18 16 16 15 13 12 12 10 10 10 11 10 9 9 8 8 9 7 7 6 6 6 6 7 8 6 6 7 6 6 8
18 21 22 24 24 22 22 22 22 22 20 19 18 16 16 17 14 14 14 14 11 10 10 12 8 8 10 10 10 9 8 8 8 8 8 9 9 8 8 5 7 8 8
11 17 20 22 23 24 22 22 22 21 22 20 18 19 17 17 17 16 15 14 14 13 11 7 7 12 13 11 10 11 9 9 9 9 9 9 8 9 8 9 9 9 9
10 13 17 20 21 22 20 22 21 22 21 18 19 18 18 18 19 18 16 15 14 14 11 13 12 10 12 12 12 12 9 10 11 10 10 10 10 10 9 8 9 9 7
10 13 15 19 20 19 18 19 20 19 18 19 19 17 18 19 20 18 19 17 17 17 17 14 12 13 14 13 14 13 12 12 12 11 11 11 11 11 10 9 9 9 9
13 15 17 17 18 19 17 17 17 16 16 17 17 17 15 17 18 17 18 17 19 17 13 8 10 12 13 12 14 13 11 12 12 12 11 12 10 6 7 8 9 9 10
15 16 17 18 20 20 18 16 16 16 15 16 17 15 16 17 18 19 18 16 17 15 12 12 12 14 11 12 12 12 12 12 12 10 11 10 6 9 10 10 11 11 11
16 15 19 19 17 17 16 16 16 16 16 16 15 16 16 16 18 18 18 17 18 15 12 11 13 14 14 10 14 15 13 11 9 8 8 9 7 8 9 11 12 12 15
18 14 14 15 16 16 17 16 16 16 16 15 16 15 16 16 16 17 19 18 17 16 13 13 12 13 12 12 13 10 11 10 6 3 1 6 10 12 10 8 11 11 11
14 12 13 15 16 17 17 17 17 16 15 15 14 15 14 14 15 17 17 16 15 14 12 11 13 11 15 11 17 15 12 9 7 4 4 3 5 9 3 9 10 11 10
10 11 14 15 17 17 18 18 17 15 15 15 14 13 12 12 12 12 12 13 14 12 12 12 11 10 14 14 16 14 8 9 6 5 6 9 8 5 7 9 10 10 10
8 11 13 13 14 15 16 16 16 14 13 12 12 11 12 13 10 12 10 11 12 9 12 12 8 11 11 12 15 12 9 8 8 5 4 7 15 9 8 9 9 7 7
15 16 15 14 14 15 14 14 14 12 12 12 12 10 8 6 6 9 9 9 8 8 10 10 8 6 10 10 13 14 6 4 6 7 5 3 8 8 9 9 2 2 5
15 16 16 16 13 14 13 13 13 12 12 12 11 10 9 8 5 7 8 7 7 6 6 6 6 6 4 6 8 7 5 7 6 4 10 13 8 7 10 10 5 6 9
15 15 16 16 14 11 11 13 11 11 11 10 9 8 8 9 5 4 4 4 4 4 4 5 5 3 3 3 4 5 6 7 9 6 4 3 1 1 3 7 9 9 6
14 13 12 13 13 12 12 12 13 13 11 11 11 9 9 9 7 7 5 1 6 3 5 6 5 5 7 5 5 4 7 6 3 4 5 7 7 7 7 6 5 5 5
12 12 12 11 11 11 12 11 11 11 11 12 9 9 9 9 8 8 7 12 9 5 5 5 2 3 9 9 11 11 11 10 6 5 7 7 6 6 5 5 5 5 4
Wind_Direction
200 198 199 198 200 199 196 201 204 200 206 201 209 214 219 214 234 260 242 245 234 244 247 256 237 233 234 347 288 309 299 314 14 283 331 144 208 230 67 116 23 58 34
204 199 200 203 201 201 203 203 209 207 208 207 215 235 233 238 245 228 252 252 249 229 235 254 244 209 145 230 311 346 314 290 30 328 277 226 165 189 116 29 39 17 24
209 203 203 206 206 203 205 206 208 210 210 221 208 206 236 245 235 236 241 227 237 240 230 222 255 169 272 277 301 344 333 329 329 348 321 264 12 335 146 177 54 356 33
212 210 206 207 208 208 206 208 209 209 211 209 219 215 225 233 229 242 245 258 228 226 196 199 197 204 271 6 224 313 328 295 329 261 169 344 359 327 203 156 135 144 88
211 211 207 206 207 206 207 206 209 209 213 203 220 207 224 230 232 223 216 236 188 215 203 189 184 195 248 156 276 254 283 289 316 288 322 353 280 86 306 310 91 214 137
208 210 210 204 204 205 207 206 203 206 204 207 205 217 224 226 224 202 204 209 201 192 209 189 182 187 199 208 235 250 232 277 310 306 283 269 297 321 302 288 275 340 260
208 204 206 201 202 204 205 206 201 204 204 206 207 210 217 216 218 213 216 218 207 201 168 192 192 185 198 189 240 230 270 247 279 254 298 275 258 285 299 298 292 297 293
208 208 203 204 202 205 203 205 199 203 202 203 207 207 211 214 214 208 232 211 211 204 157 196 201 211 193 193 190 222 244 225 243 263 281 299 277 272 264 281 303 297 291
209 208 205 204 203 204 204 201 200 201 202 201 202 206 205 216 209 214 206 202 194 183 189 193 199 214 208 200 197 234 223 242 238 251 254 266 281 274 276 274 277 289 295
210 211 209 204 203 203 204 203 200 201 200 203 202 206 202 202 204 195 200 197 180 185 179 191 188 198 207 205 216 233 218 234 252 251 262 262 271 267 251 263 269 266 281
212 211 208 209 200 204 202 203 203 203 202 201 198 200 199 196 191 199 195 182 187 173 178 177 176 201 213 208 220 243 257 229 239 252 256 258 265 270 277 261 268 270 280
231 211 205 204 201 202 205 200 205 203 204 201 195 196 192 189 194 193 186 182 170 178 175 200 165 194 211 220 219 231 242 234 243 248 250 256 254 250 255 268 264 282 293
243 221 202 196 200 200 203 203 203 206 205 200 200 199 194 192 193 194 178 177 168 174 180 183 190 209 205 212 217 225 230 236 243 239 243 254 257 259 269 286 287 275 249
230 204 199 194 197 200 198 203 206 206 203 198 202 198 192 195 200 186 179 179 177 182 198 202 181 193 197 208 219 214 220 230 238 240 241 249 254 259 268 265 270 271 273
219 199 196 197 193 196 198 201 205 203 203 201 199 199 197 203 206 193 184 183 184 189 206 193 195 201 214 210 215 221 219 236 240 246 247 241 248 268 283 281 284 303 281
223 204 199 198 196 196 195 191 194 196 198 194 200 192 192 202 206 199 196 189 192 192 193 187 205 215 216 203 195 212 222 228 242 251 262 262 239 237 234 242 255 273 275
227 207 204 201 195 190 187 185 184 184 186 195 189 193 195 202 209 202 200 194 199 201 209 202 214 221 227 202 193 203 225 235 251 266 282 287 272 265 265 221 222 236 234
243 212 202 197 190 184 175 175 176 180 183 185 190 191 192 203 203 205 201 202 206 211 212 211 227 240 237 196 206 182 221 221 226 153 17 318 300 286 259 259 269 272 274
241 221 195 181 180 175 169 169 169 170 176 186 190 186 193 201 200 203 205 209 205 210 211 219 229 234 240 174 168 178 207 202 202 187 193 207 288 306 206 261 271 279 281
218 192 179 168 175 171 162 162 162 164 173 182 185 183 186 198 201 209 215 200 207 214 219 211 216 222 239 170 174 190 204 199 198 187 186 184 209 247 212 257 269 273 279
156 153 152 159 157 151 150 151 152 164 169 166 160 166 180 187 187 195 209 201 209 219 215 229 234 229 226 205 181 202 192 227 227 214 217 241 211 185 208 236 266 289 337
126 122 118 127 135 137 145 139 141 142 150 150 152 160 162 176 191 183 202 202 193 215 237 232 235 236 235 209 186 188 223 226 214 238 255 111 145 170 201 222 94 4 282
118 119 119 116 116 126 135 135 139 146 148 141 139 146 148 162 161 181 188 195 198 211 226 229 227 231 190 158 132 171 171 207 242 252 87 106 134 186 212 226 223 239 249
99 106 108 107 105 103 98 110 117 121 126 123 131 131 140 113 151 188 201 209 184 207 227 226 211 172 160 97 183 156 166 177 200 154 173 131 250 246 337 169 208 234 273
86 81 84 94 97 97 101 112 119 125 116 132 130 115 104 108 100 80 16 3 69 18 247 174 179 187 190 180 125 204 187 181 106 174 213 212 214 226 219 230 247 265 267
82 87 89 88 92 95 99 116 126 119 127 120 134 140 144 162 164 156 132 54 38 20 31 37 37 63 78 103 82 65 58 58 74 226 253 247 244 260 273 270 273 270 234